GW4718 Weather Reports


Display with metric or nautical units.
time (UTC)temp
F
wind
direction
speed
MPH
gust
MPH
rain 1hr
in
rain 24hr
in
rain mn
in
humidity
%
barometer
mb
20260503034016 41 116 3.0 3.0 0.00 0.00 0.00 66 1017.3
20260503033513 41 59 1.0 2.0 0.00 0.00 0.00 70 1017.2
20260503033011 41 52 1.0 2.0 0.00 0.00 0.00 70 1017.3
20260503032510 41 87 0.0 2.0 0.00 0.00 0.00 67 1017.3
20260503032008 41 73 2.0 3.0 0.00 0.00 0.00 68 1017.2
20260503031506 42 203 0.0 0.0 0.00 0.00 0.00 66 1017.2
20260503031002 42 195 1.0 2.0 0.00 0.00 0.00 67 1017.2
20260503030458 42 230 2.0 4.0 0.00 0.00 0.00 64 1017.3
20260503025955 43 257 0.0 3.0 0.00 0.00 0.00 64 1017.3
20260503025452 43 67 2.0 3.0 0.00 0.00 0.00 62 1017.3
20260503024949 42 221 2.0 4.0 0.00 0.00 0.00 61 1017.4
20260503024445 42 123 0.0 0.0 0.00 0.00 0.00 66 1017.3
20260503023943 43 286 0.0 4.0 0.00 0.00 0.00 63 1017.4
20260503023440 43 283 2.0 2.0 0.00 0.00 0.00 59 1017.6
20260503022937 43 214 1.0 3.0 0.00 0.00 0.00 58 1017.6
20260503022432 43 247 2.0 6.0 0.00 0.00 0.00 59 1017.3
20260503021928 43 220 5.0 6.0 0.00 0.00 0.00 57 1017.2
20260503021424 42 289 1.0 3.0 0.00 0.00 0.00 59 1017.5
20260503020922 42 46 0.0 0.0 0.00 0.00 0.00 64 1017.1
20260503020419 43 128 0.0 0.0 0.00 0.00 0.00 64 1017.2
20260503015915 43 136 0.0 0.0 0.00 0.00 0.00 64 1017.0
20260503015412 43 108 2.0 3.0 0.00 0.00 0.00 62 1016.8
20260503014908 43 155 0.0 2.0 0.00 0.00 0.00 58 1017.0
20260503014405 44 95 4.0 4.0 0.00 0.00 0.00 54 1017.1
20260503013903 44 36 2.0 2.0 0.00 0.00 0.00 55 1017.1
20260503013400 44 6 0.0 0.0 0.00 0.00 0.00 52 1017.0
20260503012857 44 278 0.0 3.0 0.00 0.00 0.00 51 1017.1
20260503012354 44 339 0.0 1.0 0.00 0.00 0.00 55 1016.8
20260503011851 45 246 1.0 3.0 0.00 0.00 0.00 51 1016.7
20260503011348 45 218 3.0 6.0 0.00 0.00 0.00 52 1016.9
20260503010844 45 69 3.0 4.0 0.00 0.00 0.00 51 1016.9
20260503010342 45 18 3.0 3.0 0.00 0.00 0.00 52 1016.5
20260503005838 45 240 0.0 0.0 0.00 0.00 0.00 49 1016.7
20260503005336 45 161 1.0 2.0 0.00 0.00 0.00 49 1016.3
20260503004833 46 210 3.0 3.0 0.00 0.00 0.00 49 1016.1
20260503004330 46 186 4.0 6.0 0.00 0.00 0.00 47 1016.1
20260503003827 44 152 1.0 2.0 0.00 0.00 0.00 52 1016.1
20260503003324 45 114 1.0 2.0 0.00 0.00 0.00 56 1016.0
20260503002821 45 105 1.0 2.0 0.00 0.00 0.00 53 1016.1
20260503002318 46 86 0.0 0.0 0.00 0.00 0.00 51 1015.9
20260503001814 46 184 2.0 3.0 0.00 0.00 0.00 47 1016.1
20260503001310 46 241 0.0 2.0 0.00 0.00 0.00 45 1016.1
20260503000808 46 267 2.0 7.0 0.00 0.00 0.00 46 1016.0
20260503000305 46 180 1.0 3.0 0.00 0.00 0.00 50 1015.9
20260502235802 46 104 1.0 3.0 0.00 0.00 0.00 45 1016.0
20260502235300 47 238 0.0 2.0 0.00 0.00 0.00 48 1015.9
20260502234756 47 234 1.0 1.0 0.00 0.00 0.00 46 1015.7
20260502234253 47 111 5.0 6.0 0.00 0.00 0.00 49 1015.6
20260502233749 47 191 4.0 6.0 0.00 0.00 0.00 48 1015.6
20260502233246 47 114 1.0 3.0 0.00 0.00 0.00 47 1015.8
20260502232742 47 135 1.0 2.0 0.00 0.00 0.00 45 1015.6
20260502232239 47 205 2.0 4.0 0.00 0.00 0.00 45 1015.8
20260502231736 47 201 3.0 4.0 0.00 0.00 0.00 47 1015.7
20260502231234 47 222 6.0 7.0 0.00 0.00 0.00 46 1015.7
20260502230732 47 198 7.0 10.0 0.00 0.00 0.00 45 1015.5
20260502230230 48 284 5.0 7.0 0.00 0.00 0.00 42 1015.6
20260502225726 48 137 1.0 7.0 0.00 0.00 0.00 41 1015.5
20260502225218 48 232 0.0 2.0 0.00 0.00 0.00 43 1015.5
20260502224714 48 155 1.0 2.0 0.00 0.00 0.00 43 1015.3
20260502224211 48 220 0.0 2.0 0.00 0.00 0.00 42 1015.5
20260502223709 48 181 3.0 8.0 0.00 0.00 0.00 45 1015.5
20260502223207 48 34 0.0 4.0 0.00 0.00 0.00 42 1015.5
20260502222704 48 65 1.0 3.0 0.00 0.00 0.00 48 1015.4
20260502222201 48 247 5.0 7.0 0.00 0.00 0.00 43 1015.3
20260502221656 48 235 4.0 6.0 0.00 0.00 0.00 44 1015.3
20260502221153 48 110 1.0 9.0 0.00 0.00 0.00 42 1015.2
20260502220649 48 265 2.0 9.0 0.00 0.00 0.00 44 1015.3
20260502220146 49 158 4.0 7.0 0.00 0.00 0.00 44 1015.2
20260502215643 49 175 0.0 0.0 0.00 0.00 0.00 43 1015.3
20260502215139 49 171 4.0 6.0 0.00 0.00 0.00 42 1015.1
20260502214636 49 189 1.0 2.0 0.00 0.00 0.00 42 1015.2
20260502214128 49 285 0.0 3.0 0.00 0.00 0.00 41 1015.2
20260502213626 49 350 2.0 4.0 0.00 0.00 0.00 42 1015.1
20260502213123 49 169 4.0 4.0 0.00 0.00 0.00 45 1015.3
20260502212621 49 217 2.0 4.0 0.00 0.00 0.00 44 1015.2
20260502212120 48 165 5.0 10.0 0.00 0.00 0.00 46 1015.3
20260502211614 48 191 8.0 10.0 0.00 0.00 0.00 44 1015.1
20260502211111 49 251 5.0 11.0 0.00 0.00 0.00 45 1015.1
20260502210609 49 44 2.0 4.0 0.00 0.00 0.00 44 1015.0
20260502210106 49 172 2.0 7.0 0.00 0.00 0.00 42 1015.1
20260502205603 51 255 3.0 7.0 0.00 0.00 0.00 44 1015.1
20260502205100 49 283 2.0 4.0 0.00 0.00 0.00 40 1015.0
20260502204556 49 285 3.0 8.0 0.00 0.00 0.00 42 1015.0
20260502204054 49 102 1.0 3.0 0.00 0.00 0.00 44 1014.8
20260502203551 49 179 0.0 4.0 0.00 0.00 0.00 46 1015.2
20260502203048 49 239 4.0 6.0 0.00 0.00 0.00 46 1015.3
20260502202543 49 207 3.0 4.0 0.00 0.00 0.00 45 1015.2
20260502202042 49 197 4.0 7.0 0.00 0.00 0.00 46 1015.5
20260502201537 49 245 3.0 7.0 0.00 0.00 0.00 44 1015.4
20260502201034 49 90 2.0 3.0 0.00 0.00 0.00 48 1015.3
20260502200530 49 297 1.0 3.0 0.00 0.00 0.00 43 1015.5
20260502200028 49 227 2.0 7.0 0.00 0.00 0.00 42 1015.4
20260502195525 49 188 0.0 1.0 0.00 0.00 0.00 45 1015.5
20260502195021 49 306 3.0 6.0 0.00 0.00 0.00 44 1015.5
20260502194518 49 189 4.0 8.0 0.00 0.00 0.00 45 1015.6
20260502194014 49 203 4.0 7.0 0.00 0.00 0.00 47 1015.6
20260502193512 48 270 5.0 9.0 0.00 0.00 0.00 45 1015.8
20260502193008 49 249 1.0 4.0 0.00 0.00 0.00 45 1015.6
20260502192504 49 196 3.0 4.0 0.00 0.00 0.00 44 1015.6
20260502192001 49 133 4.0 8.0 0.00 0.00 0.00 46 1015.7
20260502191459 49 210 5.0 11.0 0.00 0.00 0.00 48 1015.8
20260502190956 49 205 3.0 4.0 0.00 0.00 0.00 48 1015.9
20260502190453 49 151 1.0 3.0 0.00 0.00 0.00 42 1015.8
20260502185949 49 125 0.0 3.0 0.00 0.00 0.00 43 1015.9
20260502185445 50 211 5.0 7.0 0.00 0.00 0.00 46 1015.9
20260502184942 50 179 5.0 7.0 0.00 0.00 0.00 45 1016.1
20260502184437 50 336 3.0 9.0 0.00 0.00 0.00 44 1015.8
20260502183934 50 322 1.0 2.0 0.00 0.00 0.00 45 1015.9
20260502183430 51 268 2.0 4.0 0.00 0.00 0.00 46 1016.1
20260502182926 51 5 1.0 2.0 0.00 0.00 0.00 47 1015.9
20260502182421 50 290 3.0 4.0 0.00 0.00 0.00 46 1016.2
20260502181918 51 323 4.0 4.0 0.00 0.00 0.00 44 1015.9
20260502181416 50 50 3.0 3.0 0.00 0.00 0.00 48 1016.3
20260502180914 50 14 2.0 4.0 0.00 0.00 0.00 44 1016.0
20260502180411 50 167 4.0 6.0 0.00 0.00 0.00 49 1016.2
20260502170330 49 237 2.0 10.0 0.00 0.00 0.00 51 1016.4
20260502164318 48 266 2.0 4.0 0.00 0.00 0.00 48 1016.7
20260502163814 47 95 3.0 4.0 0.00 0.00 0.00 48 1016.7
20260502163310 48 210 5.0 6.0 0.00 0.00 0.00 48 1016.7
20260502162808 48 306 1.0 2.0 0.00 0.00 0.00 50 1016.9
20260502162305 47 270 0.0 4.0 0.00 0.00 0.00 51 1016.8
20260502161801 47 226 2.0 3.0 0.00 0.00 0.00 50 1016.7
20260502161257 47 163 1.0 3.0 0.00 0.00 0.00 47 1017.0
20260502160755 47 165 1.0 7.0 0.00 0.00 0.00 48 1016.9
20260502160249 48 242 5.0 7.0 0.00 0.00 0.00 52 1016.8
20260502152217 47 266 1.0 6.0 0.00 0.00 0.00 52 1017.1
20260502151715 47 224 7.0 10.0 0.00 0.00 0.00 51 1017.2
20260502151212 48 224 2.0 3.0 0.00 0.00 0.00 48 1017.0
20260502150709 48 243 4.0 6.0 0.00 0.00 0.00 52 1016.9
20260502150205 48 67 0.0 3.0 0.00 0.00 0.00 51 1016.9
20260502140129 46 255 0.0 3.0 0.00 0.00 0.00 51 1016.8
20260502130554 44 108 1.0 9.0 0.00 0.00 0.00 62 1016.8
20260502123537 42 36 2.0 3.0 0.00 0.00 0.00 68 1016.7
20260502123034 42 21 3.0 8.0 0.00 0.00 0.00 65 1016.4
20260502122530 42 101 0.0 1.0 0.00 0.00 0.00 65 1016.7
20260502122028 42 55 2.0 3.0 0.00 0.00 0.00 66 1016.4
20260502121525 42 268 1.0 2.0 0.00 0.00 0.00 67 1016.4
20260502121022 42 82 4.0 6.0 0.00 0.00 0.00 69 1016.3
20260502120519 41 48 0.0 0.0 0.00 0.00 0.00 77 1016.5
20260502115513 40 272 0.0 0.0 0.00 0.00 0.00 81 1016.4
20260502115009 40 284 0.0 0.0 0.00 0.00 0.00 82 1016.7
20260502114506 40 273 0.0 1.0 0.00 0.00 0.00 82 1016.8
20260502114003 39 71 0.0 2.0 0.00 0.00 0.00 82 1016.7
20260502113500 39 136 0.0 0.0 0.00 0.00 0.00 85 1016.8
20260502112959 39 225 0.0 0.0 0.00 0.00 0.00 85 1016.5
20260502112456 38 221 0.0 1.0 0.00 0.00 0.00 83 1016.7
20260502111953 38 189 0.0 1.0 0.00 0.00 0.00 86 1016.7
20260502111451 39 180 0.0 1.0 0.00 0.00 0.00 85 1016.7
20260502110948 39 205 1.0 1.0 0.00 0.00 0.00 82 1016.8
20260502110446 39 122 1.0 1.0 0.00 0.00 0.00 80 1016.7
20260502105942 38 122 1.0 1.0 0.00 0.00 0.00 83 1016.8
20260502105440 38 253 1.0 1.0 0.00 0.00 0.00 85 1016.5
20260502104938 38 120 1.0 2.0 0.00 0.00 0.00 84 1016.7
20260502104435 38 181 1.0 2.0 0.00 0.00 0.00 86 1017.0
20260502103932 38 110 0.0 0.0 0.00 0.00 0.00 83 1017.0
20260502103430 38 98 0.0 0.0 0.00 0.00 0.00 82 1017.1
20260502102926 38 94 0.0 0.0 0.00 0.00 0.00 81 1017.3
20260502102423 38 120 1.0 1.0 0.00 0.00 0.00 81 1017.0
20260502101920 38 143 1.0 1.0 0.00 0.00 0.00 83 1017.0
20260502101419 39 253 1.0 2.0 0.00 0.00 0.00 79 1017.0
20260502100916 39 114 1.0 2.0 0.00 0.00 0.00 77 1016.9
20260502100411 39 78 2.0 3.0 0.00 0.00 0.00 78 1016.9
20260502091344 41 113 2.0 3.0 0.00 0.00 0.00 75 1017.0
20260502090842 41 75 0.0 0.0 0.00 0.00 0.00 71 1017.0
20260502090338 41 70 0.0 0.0 0.00 0.00 0.00 71 1017.0
20260502071233 40 146 1.0 1.0 0.00 0.00 0.00 82 1016.5
20260502070732 40 124 1.0 1.0 0.00 0.00 0.00 80 1016.7
20260502070229 42 128 0.0 1.0 0.00 0.00 0.00 77 1016.7
20260502065727 42 82 1.0 2.0 0.00 0.00 0.00 73 1016.5
20260502065225 42 123 1.0 1.0 0.00 0.00 0.00 75 1016.7
20260502064723 41 223 1.0 2.0 0.00 0.00 0.00 76 1016.7
20260502064220 42 259 1.0 2.0 0.00 0.00 0.00 75 1017.0
20260502063718 41 245 0.0 2.0 0.00 0.00 0.00 74 1016.7
20260502063216 42 112 1.0 2.0 0.00 0.00 0.00 75 1016.8
20260502062712 42 173 0.0 2.0 0.00 0.00 0.00 72 1016.8
20260502062210 42 183 1.0 2.0 0.00 0.00 0.00 73 1016.8
20260502061709 43 137 1.0 1.0 0.00 0.00 0.00 71 1016.9
20260502061205 43 151 1.0 3.0 0.00 0.00 0.00 70 1017.1
20260502060700 44 167 0.0 1.0 0.00 0.00 0.00 70 1016.9
20260502060157 44 313 1.0 2.0 0.00 0.00 0.00 67 1016.8
20260502055654 44 336 0.0 1.0 0.00 0.00 0.00 70 1016.9
20260502055152 44 166 2.0 8.0 0.00 0.00 0.00 70 1017.0
20260502054651 44 220 4.0 7.0 0.00 0.00 0.00 69 1016.9
20260502054148 44 184 1.0 3.0 0.00 0.00 0.00 68 1016.9
20260502053645 45 153 1.0 6.0 0.00 0.00 0.00 67 1016.9
20260502053142 45 148 4.0 8.0 0.00 0.00 0.00 69 1016.9
20260502052640 45 129 3.0 4.0 0.00 0.00 0.00 67 1016.9
20260502052138 45 156 0.0 4.0 0.00 0.00 0.00 67 1017.1
20260502051636 45 241 2.0 4.0 0.00 0.00 0.00 68 1017.1
20260502051134 46 208 2.0 3.0 0.00 0.00 0.00 69 1016.7
20260502050630 46 45 4.0 8.0 0.00 0.00 0.00 67 1016.7
20260502050127 46 153 1.0 4.0 0.00 0.00 0.00 70 1016.5
20260502045623 46 198 2.0 3.0 0.00 0.00 0.00 70 1016.9
20260502045121 46 203 3.0 9.0 0.00 0.00 0.00 70 1016.8
20260502044617 46 237 1.0 4.0 0.00 0.00 0.00 69 1016.9
20260502044114 46 191 1.0 6.0 0.00 0.00 0.00 73 1016.8
20260502043612 46 268 3.0 8.0 0.00 0.00 0.00 73 1016.7
20260502043108 46 330 1.0 3.0 0.00 0.00 0.00 75 1016.7
20260502042603 45 18 0.0 4.0 0.00 0.00 0.00 76 1016.7
20260502042101 45 123 0.0 1.0 0.00 0.00 0.00 76 1016.7
20260502041558 46 273 0.0 2.0 0.00 0.00 0.00 75 1016.7
20260502041055 47 224 2.0 11.0 0.00 0.00 0.00 70 1016.3
20260502040552 46 103 2.0 2.0 0.00 0.00 0.00 73 1016.3
20260502040049 46 82 2.0 2.0 0.00 0.00 0.00 75 1016.3
20260502035545 46 342 2.0 2.0 0.00 0.00 0.00 73 1016.2
20260502035043 46 65 1.0 3.0 0.00 0.00 0.00 74 1016.7
20260502034540 46 98 1.0 4.0 0.00 0.00 0.00 72 1016.7
20260502034038 47 172 0.0 2.0 0.00 0.00 0.00 72 1016.7